www.pogodaiklimat.ru

Погода и климат >> Архив погоды >> Россия >> Якутия >> Шелагонцы


ПОГОДА в Шелагонцах

  • Прогноз погоды в Шелагонцах
  • Монитор погоды в Шелагонцах
  • Климат города

АРХИВ ПОГОДЫ в Шелагонцах

Время (UTC), дата Ветер
(напр.,м/с)
 
Видим.   Явления Облачность Т
(С)
Тd
(С)
f
(%)
Тe
(С)
Тes
(С)
Комфортность P
(гПа)
Po
(гПа)
Тmin
(С)
Tmax
(С)
R
(мм)
R24
(мм)
S
(см)
00 10.08 штиль 0 200 м туман ?/? +10.4 +10.0 97 +10 +10 1007.3 979.3 +8.4
03 10.08 штиль 0 500 м мгла {туман} ?/? +16.3 +13.3 82 +16 +16 1006.7 979.3
06 10.08 штиль 0 500 м мгла {туман} ?/? +22.7 +15.6 64 +27 +27 душно 1005.8 979.0
09 10.08 СВ 1 1000 м мгла ясно +25.1 +15.3 55 +28 +32 жарко 1005.4 978.8
12 10.08 штиль 0 1000 м мгла 4/0
[Ci fib]
+21.2 +19.5 90 +26 +26 душно 1005.7 978.9 +25.2
15 10.08 штиль 0 200 м туман ?/? +15.6 +15.3 98 +15 +15 1006.9 979.4
18 10.08 штиль 0 200 м туман ?/? +13.0 +12.6 97 +12 +12 1007.0 979.3
21 10.08 штиль 0 200 м туман ?/? +11.8 +11.4 97 +11 +11 1007.6 979.6
00 11.08 СВ 1 2000 м мгла {туман} 10/0
[As op]
+16.8 +15.3 91 +18 +18 1007.0 979.6 +9.8
03 11.08 СВ 1 2000 м слабая морось 10/10 600 м
[St]
+16.8 +14.0 84 +18 +18 1006.3 978.9
06 11.08 ЮВ 1 10 км слабая морось {дождь} 10/10 600 м
[St As op]
+17.3 +16.0 92 +18 +18 1005.4 978.1
09 11.08 ЮВ 3 10 км дымка {морось} 10/10 600 м
[St]
+17.2 +15.8 91 +17 +17 1005.3 978.0
12 11.08 В 3 10 км дымка {морось} 10/10 600 м
[St]
+16.8 +15.6 93 +17 +17 1005.5 978.2 +17.5 0.4
15 11.08 СВ 1 50 км 8/8 600 м
[St]
+15.8 +15.1 96 +16 +16 1005.5 978.1
18 11.08 штиль 0 200 м туман 6/0
[Ac trans]
+11.4 +11.0 97 +11 +11 1006.2 978.3
21 11.08 В 1 10 км дымка {туман} 10/0
[As op Ci fib]
+12.3 +12.1 99 +12 +12 1006.4 978.6
00 12.08 штиль 0 10 км дымка {дождь, туман} 9/0
[Ac As]
+16.9 +15.9 94 +17 +18 1006.4 979.1 +9.9 0.1
03 12.08 СЗ 3 50 км 9/3 1000 м
[Cb cap Ac trans]
+21.6 +13.7 61 +24 +27 комфорт 1006.7 979.7
06 12.08 З 5 50 км 4/4 1000 м
[Cb cap]
+23.8 +11.6 46 +25 +28 комфорт 1007.0 980.2
09 12.08 З 5 50 км 6/6 1000 м
[Cu med, cong]
+25.0 +11.4 43 +26 +27 жарко 1007.4 980.7
12 12.08 З 1 50 км 3/3 1000 м
[Cu med, cong Ci fib]
+23.2 +11.0 46 +25 +25 комфорт 1009.0 982.2 +25.2
15 12.08 З 1 50 км 5/0
[Ci fib]
+11.0 +9.8 92 +11 +11 1011.9 983.7
18 12.08 штиль 0 50 км 3/0
[Ci fib]
+5.4 +5.2 99 +4 +4 1014.1 985.3
21 12.08 штиль 0 1000 м туман 6/0
[Ci fib]
+2.5 +2.2 98 +1 +1 1015.4 986.2
00 13.08 штиль 0 50 км {туман} 10/10 600 м
[Sc]
+9.6 +8.6 93 +9 +9 1015.5 987.2 +2.5
03 13.08 В 1 10 км мгла 3/0
[Ci sp]
+20.2 +12.2 60 +23 +32 комфорт 1013.8 986.5
06 13.08 Ю 5 50 км ясно +28.2 +12.1 37 +29 +33 жарко 1011.8 985.3
09 13.08 ЮЗ 5 50 км ясно +29.6 +12.0 34 +30 +32 жарко 1011.0 984.6
12 13.08 Ю 1 50 км ясно +27.7 +13.6 42 +30 +30 жарко 1010.5 984.0 +29.8
15 13.08 штиль 0 50 км 3/0
[Ci sp]
+16.7 +13.8 83 +17 +17 1011.4 983.8
18 13.08 штиль 0 50 км ясно +11.4 +10.8 96 +11 +11 1012.2 984.1
21 13.08 СВ 1 50 км 4/0
[Ci fib]
+9.3 +8.7 96 +9 +9 1011.9 983.6
00 14.08 СВ 1 10 км мгла 3/0
[Ci fib]
+15.3 +12.6 84 +16 +19 1011.2 983.5 +7.9
03 14.08 штиль 0 4000 м мгла 3/0
[Ci fib]
+23.6 +14.9 58 +26 +36 жарко 1008.9 982.2
06 14.08 Ю 3 4000 м мгла 3/0
[Ci fib]
+28.4 +13.9 41 +30 +36 жарко 1007.6 981.2
09 14.08 ЮВ 3 10 км мгла 5/0
[Ci fib]
+28.1 +12.4 38 +29 +31 жарко 1006.2 979.8
12 14.08 штиль 0 10 км мгла 9/0
[As trans]
+23.3 +15.7 62 +28 +28 душно 1006.0 979.2 +29.9
15 14.08 С 1 2000 м мгла 9/8
[Cb cap Ac cast]
+19.6 +14.8 74 +23 +23 комфорт 1005.4 978.4
21 14.08 штиль 0 10 км дымка 9/4 600 м
[Cb cap Ci fib]
+16.0 +15.0 94 +16 +16 1004.0 976.6
00 15.08 штиль 0 10 км дымка 9/3 600 м
[Cb cap Ci fib]
+18.4 +16.6 89 +19 +21 1003.7 976.6 +13.0
03 15.08 З 3 10 км мгла 9/9 600 м
[Cb cap]
+21.4 +16.1 72 +25 +26 комфорт 1004.6 977.7
06 15.08 З 5
{12}
50 км 10/8 600 м
[Sc Ci fib]
+17.8 +11.6 67 +17 +18 1008.4 981.0
09 15.08 З 5 50 км 10/10 600 м
[Sc]
+14.0 +8.2 68 +12 +12 1012.1 984.2
12 15.08 З 5 50 км 10/10 600 м
[Sc]
+11.4 +6.6 72 +9 +9 1014.6 986.5 +21.4
15 15.08 З 3 50 км {дождь} 10/10 600 м
[Sc]
+9.0 +6.6 85 +7 +7 1016.6 988.2
18 15.08 З 1 50 км {дождь} 10/10 600 м
[Sc]
+7.8 +6.0 88 +7 +7 1017.7 989.1
21 15.08 З 1 50 км 10/10 600 м
[Sc]
+7.6 +6.1 90 +7 +7 1017.7 990.1
00 16.08 З 3 50 км 9/8 600 м
[Sc Ac trans]
+8.8 +5.7 81 +6 +7 1019.2 990.7 +7.1 0.0
03 16.08 СЗ 3 50 км 10/10 600 м
[Sc]
+10.1 +5.3 72 +8 +8 1019.9 991.5
06 16.08 З 3 50 км 9/9 600 м
[Cu hum]
+12.6 +2.6 51 +11 +12 1019.6 991.4
09 16.08 З 3 50 км 4/4 1000 м
[Cu hum]
+15.0 +3.7 47 +14 +16 1018.1 990.2
12 16.08 штиль 0 50 км 4/0
[Ac trans]
+12.6 +7.7 72 +12 +12 1017.8 989.7 +16.2
15 16.08 штиль 0 50 км 8/0
[Ac trans]
+5.5 +4.8 95 +4 +4 1018.7 989.8
18 16.08 штиль 0 50 км 8/0
[Ac trans]
+4.6 +4.4 99 +3 +3 1019.0 989.9
21 16.08 штиль 0 10 км дымка 4/0
[Ci fib]
-0.5 -0.5 100 -2 -2 1018.8 989.2

 

Местоположение метеостанции Шелагонцы (Якутия, Россия): широта 66.25 долгота 114.20 высота над уровнем моря 236 м.

В архиве по умолчанию представлена погода в Шелагонцах за последнюю неделю. Архивные данные за месяц целиком и за предыдущие месяцы, начиная с января 2011 года, Вы можете получить, выбрав интересующий диапазон дат из раскрывающегося списка и нажав кнопку "Ввод!".

Внимание! Время в таблицах - всемирное. Для получения местного времени необходимо прибавить поправку, которая в Шелагонцах равна 9 ч.

Смотрите также архив погоды в соседних городах и на ближайших метеорологических станциях:

Погода в Полярном (Якутия, Россия) (96 км)
Погода в Эйке (Якутия, Россия) (146 км)
Погода в Хабардино (Якутия, Россия) (200 км)
Погода в Чумпуруке (Якутия, Россия) (257 км)
Погода в Оленеке (Якутия, Россия) (262 км)
Погода в Ярольине (Якутия, Россия) (269 км)
Погода в Сухане (Якутия, Россия) (316 км)
Погода в Чернышевском (Якутия, Россия) (368 км)
Погода в Нюрбе (Якутия, Россия) (383 км)
Погода в Жиганске (Якутия, Россия) (407 км)

Пояснения к столбцам:

Ветер - указаны скорость ветра в м/с - средняя за 10 мин, порывы в срок и между сроками (в фигурных скобках) и направление, откуда дует ветер: С - северный, СВ - северо-восточный, В - восточный, ЮВ - юго-восточный, Ю - южный, ЮЗ - юго-западный, З - западный, СЗ - северо-западный.
Видимость - горизонтальная дальность видимости в метрах или километрах. При видимости от 1 до 10 км при отсутствии осадков обычно наблюдается дымка, при ухудшении видимости до 1 км и менее - туман. В сухую погоду видимость может ухудшаться дымом, пылью или мглою.
Явления - указаны атмосферные явления, наблюдавшиеся в срок или в последний час перед сроком; фигурными скобками обозначены явления, наблюдавшиеся между сроками (за 1-3 часа до срока); квадратными скобками обозначены град или гололедные отложения с указанием их диаметра в мм.
Облачность - указаны через наклонную черту общая и нижняя облачность в баллах и высота нижней границы облаков в метрах; квадратными скобками обозначены формы облаков: Ci - перистые, Cs - перисто-слоистые, Cc - перисто-кучевые, Ac - высококучевые, As - высокослоистые, Sc - слоисто-кучевые, Ns - слоисто-дождевые, Cu - кучевые, Cb - кучево-дождевые. Подробнее классификацию облаков см. в Атласе облаков (PDF).
T - Температура воздуха - температура, измеренная на высоте 2 м над землей.
Td - Температура точки росы - температура, при понижении до которой содержащийся в воздухе водяной пар достигнет насыщения.
f - Относительная влажность воздуха - влажноcть воздуха, измеренная на высоте 2 м над землей.
Te - Эффективная температура - температура, которую ощущает одетый по сезону человек в тени. Характеристика душности погоды. При расчете учитывается влияние влажности воздуха и скорости ветра на теплоощущения человека.
Tes - Эффективная температура на солнце - температура, которую ощущает человек, с поправкой на солнечный нагрев. Характеристика знойности погоды. Зависит от высоты солнца над горизонтом, облачности и скорости ветра. Ночью, в пасмурную погоду, а также при ветре 12 м/с и более поправка равна нулю.
P - Атмосферное давление - приведенное к уровню моря атмосферное давление.
Po - Атмосферное давление - измеренное на уровне метеостанции атмосферное давление.
Tmin - Минимальная температура - минимум температуры воздуха на высоте 2 м над землей.
Tmax - Максимальная температура - максимум температуры воздуха на высоте 2 м над землей.
R - Количество осадков - Количество выпавших осадков за период времени, мм. При наведении курсора мыши на число - период времени, за который выпало указанное количество осадков.
R24 - Количество осадков - Количество выпавших осадков за 24 часа, мм.
S - Снежный покров - Высота снежного покрова, см. При наведении курсора мыши на число - состояние снежного покрова и степень покрытия местности в баллах.